Location: Killarney
(45.9719°N, 81.5115°W)
Time: 07:36:38
(UTC-04:00)

ISS - Pass Details

Date: 23 April 2025
Orbit: 416 x 419 km, 51.6° (Epoch: 14 May)

Event Time Altitude Azimuth Distance (km) Brightness Sun altitude
Exits shadow 03:55:11 14° 119° (ESE) 1,254 -1.3 -22.3°
Drops below altitude 10° 03:56:30 10° 97° (E) 1,498 -0.5 -22.1°
Sets 03:59:12 0° 73° (ENE) 2,361 1.0 -21.8°
